Latest Coastal Weather Observations for Willis Island

IDQ60701

Issued at 5:51 am EST Monday 31 August 2015 (issued every 10 minutes, with the page automatically refreshed every 10 minutes)

About coastal observations | Map of coastal stations | Coastal observations for QLD | Marine services | Other Formats
Station Details ID: 200283 Name: WILLIS ISLAND Lat: -16.29 Lon: 149.97 Height: 9.29 m
Data from the previous 72 hours. | See also: Recent months at Willis Island
Date/Time
EST
Temp

°C
Wind Pressure Rain
since 9am
mm
Weather Cloud Vis
km
Sea
Height
m
Swell
Dir
 
Speed
knots
Gust
knots
hPa Trend Height
m
Period
s
Dir
31/05:30am 23.2 SE 10 12 1014.7 - 0.0 - - - - - - -
31/05:00am 23.2 SE 11 12 1014.3 - 0.0 - - - - - - -
31/04:30am 23.1 SE 10 11 1014.1 - 0.0 - - - - - - -
31/04:00am 23.3 SSE 10 12 1014.2 - 0.0 - - - - - - -
31/03:30am 23.3 SE 10 12 1014.2 - 0.0 - - - - - - -
31/03:00am 23.2 SE 10 11 1014.2 - 0.0 - - - - - - -
31/02:30am 23.3 SE 10 11 1014.4 - 0.0 - - - - - - -
31/02:00am 23.2 SE 9 11 1014.5 - 0.0 - - - - - - -
31/01:30am 23.3 SE 9 11 1014.7 - 0.0 - - - - - - -
31/01:00am 23.3 ESE 9 11 1014.9 - 0.0 - - - - - - -
31/12:30am 23.4 ESE 10 11 1015.2 - 0.0 - - - - - - -
31/12:00am 23.4 ESE 8 10 1015.4 - 0.0 - - - - - - -
 
Date/Time
EST
Temp

°C
Wind Pressure Rain
since 9am
mm
Weather Cloud Vis
km
Sea
Height
m
Swell
Dir
 
Speed
knots
Gust
knots
hPa Trend Height
m
Period
s
Dir
30/11:30pm 23.3 ESE 8 10 1015.8 - 0.0 - - - - - - -
30/11:00pm 23.3 SE 8 9 1015.8 - 0.0 - - - - - - -
30/10:30pm 23.3 SE 8 9 1016.0 - 0.0 - - - - - - -
30/10:00pm 23.4 SSE 8 9 1016.0 - 0.0 - - - - - - -
30/09:30pm 23.5 SSE 8 9 1015.9 - 0.0 - - - - - - -
30/09:00pm 23.5 SSE 8 11 1015.8 R 0.0 Fine Clear 30 <0.5 - - -
30/08:30pm 23.5 SSE 9 10 1015.7 - 0.0 - - - - - - -
30/08:00pm 23.6 SSE 9 11 1015.6 - 0.0 - - - - - - -
30/07:30pm 23.7 SSE 9 11 1015.3 - 0.0 - - - - - - -
30/07:00pm 23.7 SSE 9 11 1015.0 - 0.0 - - - - - - -
30/06:30pm 23.8 SSE 9 11 1014.7 - 0.0 - - - - - - -
30/06:00pm 23.9 S 10 11 1014.3 F 0.0 Fine Mostly clear 30 <0.5 0.1 0 SE
30/05:30pm 24.3 SSE 10 11 1014.1 - 0.0 - - - - - - -
30/05:00pm 24.8 S 10 11 1014.0 - 0.0 - - - - - - -
30/04:30pm 25.1 SSE 10 11 1013.8 - 0.0 - - - - - - -
30/04:00pm 25.5 S 10 11 1013.9 - 0.0 - - - - - - -
30/03:30pm 25.6 S 10 11 1013.9 - 0.0 - - - - - - -
30/03:00pm 26.0 S 10 11 1014.1 F 0.0 Fine Partly cloudy 30 <0.5 0.1 0 SE
30/02:30pm 26.6 S 9 11 1014.3 - 0.0 - - - - - - -
30/02:00pm 26.3 SSE 9 10 1014.6 - 0.0 - - - - - - -
30/01:30pm 26.6 S 9 10 1014.9 - 0.0 - - - - - - -
30/01:00pm 27.0 SSE 9 10 1015.3 - 0.0 - - - - - - -
30/12:30pm 26.2 S 9 10 1015.6 - 0.0 - - - - - - -
30/12:00pm 26.7 S 8 10 1016.0 R 0.0 Fine Mostly clear 35 1 0.5 10 SE
30/11:30am 26.7 SSE 8 10 1016.5 - 0.0 - - - - - - -
30/11:00am 26.7 SSE 8 9 1016.8 - 0.0 - - - - - - -
30/10:30am 26.4 SE 8 10 1017.0 - 0.0 - - - - - - -
30/10:00am 26.7 SE 8 9 1017.2 - 0.0 - - - - - - -
30/09:30am 26.8 SE 8 10 1017.1 - 0.0 - - - - - - -
30/09:00am 26.1 SE 8 10 1017.0 R 0.0 Fine Mostly clear 30 1 0.8 10 SE
30/08:30am 25.8 SE 8 10 1016.8 - 0.0 - - - - - - -
30/08:00am 25.2 ESE 8 9 1016.4 - 0.0 - - - - - - -
30/07:30am 24.8 ESE 9 10 1016.0 - 0.0 - - - - - - -
30/07:00am 24.2 ESE 8 9 1015.7 - 0.0 - - - - - - -
30/06:30am 23.3 ESE 8 9 1015.3 - 0.0 - - - - - - -
30/06:00am 23.3 ESE 9 11 1015.0 R 0.0 Distant precip. Partly cloudy 30 1 0.6 9 SE
30/05:30am 23.2 ESE 9 10 1014.7 - 0.0 - - - - - - -
30/05:00am 23.4 E 9 10 1014.4 - 0.0 - - - - - - -
30/04:30am 23.3 E 9 11 1014.3 - 0.0 - - - - - - -
30/04:00am 23.3 E 9 11 1014.3 - 0.0 - - - - - - -
30/03:30am 23.4 E 11 13 1014.2 - 0.0 - - - - - - -
30/03:00am 23.4 E 13 15 1014.3 - 0.0 - - - - - - -
30/02:30am 23.6 E 14 16 1014.5 - 0.0 - - - - - - -
30/02:00am 23.7 ESE 12 13 1014.9 - 0.0 - - - - - - -
30/01:30am 23.7 ESE 10 13 1015.3 - 0.0 - - - - - - -
30/01:00am 23.6 E 11 13 1015.8 - 0.0 - - - - - - -
30/12:30am 23.8 E 11 13 1016.1 - 0.0 - - - - - - -
30/12:00am 23.7 E 12 14 1016.4 - 0.0 - - - - - - -
 
Date/Time
EST
Temp

°C
Wind Pressure Rain
since 9am
mm
Weather Cloud Vis
km
Sea
Height
m
Swell
Dir
 
Speed
knots
Gust
knots
hPa Trend Height
m
Period
s
Dir
29/11:30pm 23.8 E 12 14 1016.7 - 0.0 - - - - - - -
29/11:00pm 23.8 ESE 12 14 1016.8 - 0.0 - - - - - - -
29/10:30pm 23.7 ESE 13 14 1016.8 - 0.0 - - - - - - -
29/10:00pm 23.8 ESE 12 14 1016.7 - 0.0 - - - - - - -
29/09:30pm 23.6 SE 12 14 1016.7 - 0.0 - - - - - - -
29/09:00pm 23.7 ESE 12 14 1016.7 F 0.0 Fine Mostly clear 30 1 - - -
29/08:30pm 23.9 ESE 12 14 1016.6 - 0.0 - - - - - - -
29/08:00pm 23.9 ESE 12 15 1016.5 - 0.0 - - - - - - -
29/07:30pm 23.9 ESE 12 14 1016.3 - 0.0 - - - - - - -
29/07:00pm 23.9 ESE 12 13 1016.0 - 0.0 - - - - - - -
29/06:30pm 24.0 ESE 13 14 1015.8 - 0.0 - - - - - - -
29/06:00pm 24.0 ESE 13 15 1015.5 F 0.0 Fine Mostly clear 30 1 0.5 9 SE
29/05:30pm 24.3 ESE 13 15 1015.2 - 0.0 - - - - - - -
29/05:00pm 24.7 SE 12 14 1015.2 - 0.0 - - - - - - -
29/04:30pm 24.9 SE 13 15 1015.1 - 0.0 - - - - - - -
29/04:00pm 25.9 SE 13 15 1015.0 - 0.0 - - - - - - -
29/03:30pm 26.1 SE 12 13 1015.0 - 0.0 - - - - - - -
29/03:00pm 26.1 ESE 12 14 1015.2 F 0.0 Fine Partly cloudy 30 1 0.5 9 SE
29/02:30pm 26.2 ESE 13 15 1015.4 - 0.0 - - - - - - -
29/02:00pm 26.9 SE 13 15 1015.7 - 0.0 - - - - - - -
29/01:30pm 27.0 ESE 13 15 1016.1 - 0.0 - - - - - - -
29/01:00pm 26.9 ESE 13 16 1016.7 - 0.0 - - - - - - -
29/12:30pm 27.4 ESE 14 16 1017.0 - 0.0 - - - - - - -
29/12:00pm 26.6 ESE 14 16 1017.4 F 0.0 Fine Mostly clear 30 1 0.5 7 SE
29/11:30am 26.8 ESE 13 16 1017.9 - 0.0 - - - - - - -
29/11:00am 26.7 SE 14 17 1018.5 - 0.0 - - - - - - -
29/10:30am 26.4 SE 13 16 1018.8 - 0.0 - - - - - - -
29/10:00am 25.8 ESE 14 16 1018.9 - 0.0 - - - - - - -
29/09:30am 26.2 ESE 14 16 1018.9 - 0.0 - - - - - - -
29/09:00am 25.2 ESE 15 17 1018.8 R 0.0 Fine Partly cloudy 30 1 0.6 7 SE
29/08:30am 25.2 ESE 14 16 1018.6 - 0.0 - - - - - - -
29/08:00am 25.0 ESE 13 16 1018.2 - 0.0 - - - - - - -
29/07:30am 24.5 ESE 14 15 1017.9 - 0.0 - - - - - - -
29/07:00am 23.9 ESE 15 17 1017.5 - 0.0 - - - - - - -
29/06:30am 23.5 ESE 15 16 1017.3 - 0.0 - - - - - - -
29/06:00am 23.4 ESE 15 18 1017.0 S 0.0 Fine Mostly clear 30 <0.5 0.4 - SE
29/05:30am 23.3 ESE 15 16 1016.6 - 0.0 - - - - - - -
29/05:00am 23.3 ESE 15 17 1016.3 - 0.0 - - - - - - -
29/04:30am 23.2 ESE 15 17 1016.2 - 0.0 - - - - - - -
29/04:00am 23.3 ESE 15 17 1016.2 - 0.0 - - - - - - -
29/03:30am 23.3 ESE 15 17 1016.3 - 0.0 - - - - - - -
29/03:00am 23.3 ESE 15 17 1016.4 - 0.0 - - - - - - -
29/02:30am 23.5 ESE 15 18 1016.5 - 0.0 - - - - - - -
29/02:00am 23.4 ESE 14 16 1016.7 - 0.0 - - - - - - -
29/01:30am 23.5 SE 14 16 1016.9 - 0.0 - - - - - - -
29/01:00am 23.4 SE 15 17 1017.2 - 0.0 - - - - - - -
29/12:30am 23.5 SE 15 17 1017.5 - 0.0 - - - - - - -
29/12:00am 23.7 ESE 15 18 1017.7 - 0.0 - - - - - - -
 
Date/Time
EST
Temp

°C
Wind Pressure Rain
since 9am
mm
Weather Cloud Vis
km
Sea
Height
m
Swell
Dir
 
Speed
knots
Gust
knots
hPa Trend Height
m
Period
s
Dir
28/11:30pm 23.4 SE 18 21 1018.1 - 0.0 - - - - - - -
28/11:00pm 23.8 ESE 15 17 1018.4 - 0.0 - - - - - - -
28/10:30pm 23.8 ESE 16 19 1018.4 - 0.0 - - - - - - -
28/10:00pm 23.8 ESE 16 19 1018.5 - 0.0 - - - - - - -
28/09:30pm 23.8 ESE 16 19 1018.2 - 0.0 - - - - - - -
28/09:00pm 23.8 ESE 16 19 1018.2 R 0.0 Fine Mostly clear 30 1 - - -
28/08:30pm 23.8 ESE 16 18 1018.0 - 0.0 - - - - - - -
28/08:00pm 23.9 ESE 16 18 1017.6 - 0.0 - - - - - - -
28/07:30pm 24.0 ESE 15 18 1017.2 - 0.0 - - - - - - -
28/07:00pm 23.8 ESE 16 18 1016.6 - 0.0 - - - - - - -
28/06:30pm 23.9 ESE 15 17 1016.3 - 0.0 - - - - - - -
28/06:00pm 23.9 ESE 17 19 1016.1 R 0.0 Fine Partly cloudy 30 1 0.7 9 SE
28/05:30pm 24.2 ESE 16 19 1015.8 - 0.0 - - - - - - -
28/05:00pm 24.4 ESE 17 19 1015.4 - 0.0 - - - - - - -
28/04:30pm 25.0 ESE 17 19 1015.1 - 0.0 - - - - - - -
28/04:00pm 25.2 ESE 17 19 1014.9 - 0.0 - - - - - - -
28/03:30pm 25.7 ESE 16 19 1015.1 - 0.0 - - - - - - -
28/03:00pm 26.1 ESE 16 18 1015.2 F 0.0 Fine Mostly clear 30 1 0.7 8 SE
28/02:30pm 26.3 ESE 16 19 1015.5 - 0.0 - - - - - - -
28/02:00pm 26.7 ESE 15 18 1015.8 - 0.0 - - - - - - -
28/01:30pm 26.6 ESE 16 19 1016.3 - 0.0 - - - - - - -
28/01:00pm 26.6 ESE 17 21 1016.6 - 0.0 - - - - - - -
28/12:30pm 26.7 ESE 17 20 1016.9 - 0.0 - - - - - - -
28/12:00pm 26.8 ESE 16 19 1017.3 F 0.0 Fine Mostly clear 30 1 1.1 9 SE
28/11:30am 26.6 SE 18 20 1017.7 - 0.0 - - - - - - -
28/11:00am 26.0 SE 17 20 1018.1 - 0.0 - - - - - - -
28/10:30am 26.0 ESE 18 21 1018.6 - 0.0 - - - - - - -
28/10:00am 26.0 SE 17 19 1018.7 - 0.0 - - - - - - -
28/09:30am 25.8 ESE 17 20 1018.8 - 0.0 - - - - - - -
28/09:00am 25.4 ESE 17 20 1018.7 R 0.0 Distant precip. Mostly cloudy 25 1 1.2 7 SE
28/08:30am 24.8 ESE 17 20 1018.5 - 0.0 - - - - - - -
28/08:00am 24.5 ESE 18 21 1018.2 - 0.0 - - - - - - -
28/07:30am 24.3 SE 18 20 1017.8 - 0.0 - - - - - - -
28/07:00am 24.0 ESE 18 21 1017.4 - 0.0 - - - - - - -
28/06:30am 23.9 ESE 18 20 1017.0 - 0.0 - - - - - - -
28/06:00am 23.5 ESE 15 17 1016.6 R 0.0 Distant precip. Mostly cloudy 25 1 0.5 5 SE

Other Formats:

Comma delimited format used in spreadsheet applications
http://www.bom.gov.au/fwo/IDQ60701/IDQ60701.94299.axf

JavaScript Object Notation format (JSON) in row-major order
http://www.bom.gov.au/fwo/IDQ60701/IDQ60701.94299.json